[[{"header":{"parameterUnit":"m.s-1","parameterCategory":1,"la1":30.2991,"la2":30.254,"lo1":-89.0895,"lo2":-89.0444,"dy":0.0017,"dx":0.0017,"nx":28,"ny":28,"refTime":"2025-03-19T09:00:00:Z","depth":0,"parameterNumber":2,"parameterNumberName":"U-component_of_WINDS"},"data":[0,0,0,0,0,0,0,0,0,0,0,0,0,0,0,0,0,0,0,0,0,0,0,0,0,0,0,0,0,0,0,0,0,0,0,0,0,0,0,0,0,0,0,0,0,0,0,0,0,0,0,0,0,0,0,0,0,0,-1.2876,-1.2876,0,-1.2885,-1.2885,-1.2885,-1.2884,-1.2884,-1.2884,-1.2883,-1.2894,-1.2894,-1.2895,0,0,0,0,0,0,0,0,0,0,0,0,0,-1.2857,-1.2857,-1.2876,-1.2876,-1.2876,-1.2885,-1.2885,-1.2885,-1.2884,-1.2884,-1.2884,-1.2883,-1.2894,-1.2894,-1.2895,0,0,0,0,0,0,0,0,0,0,0,0,0,-1.2866,-1.2858,-1.2876,-1.2876,-1.2876,-1.2885,-1.2885,-1.2885,-1.2884,-1.2884,-1.2883,-1.2883,-1.2894,-1.2894,-1.2895,-1.2904,0,0,-1.2897,-1.2897,0,0,0,0,0,0,0,0,-1.2865,-1.2866,-1.2876,-1.2876,-1.2876,-1.2883,-1.2883,-1.2892,-1.2884,-1.2881,-1.2883,-1.2883,-1.2891,-1.2892,-1.2894,-1.2904,-1.2905,-1.2897,-1.2897,-1.2898,-1.2898,0,0,0,0,0,0,0,-1.2865,-1.2866,-1.2879,-1.2876,-1.2876,-1.2876,-1.2877,-1.2884,-1.2887,-1.2881,-1.2881,-1.2882,-1.2891,-1.2893,-1.2894,-1.2905,-1.2897,-1.2898,-1.2898,-1.2898,-1.2924,-1.2924,0,0,0,0,0,0,-1.2864,-1.2866,-1.2879,-1.288,-1.287,-1.2877,-1.2878,-1.2881,-1.2887,-1.2888,-1.2883,-1.2882,-1.2892,-1.2893,-1.2894,-1.2905,-1.2898,-1.2898,-1.2899,-1.2923,-1.2924,-1.2924,0,0,0,0,0,0,-1.2863,-1.2865,-1.2879,-1.2873,-1.2874,-1.2877,-1.2881,-1.2882,-1.2884,-1.2888,-1.2889,-1.2885,-1.2892,-1.2894,-1.2902,-1.2906,-1.2899,-1.2899,-1.2923,-1.2923,-1.2924,-1.2927,0,0,0,0,0,0,-1.2863,-1.2865,-1.2868,-1.2873,-1.2875,-1.2886,-1.2881,-1.2882,-1.2885,-1.2885,-1.289,-1.2891,-1.2892,-1.2901,-1.2902,-1.2906,-1.29,-1.2923,-1.2923,-1.2924,-1.2927,-1.2928,-1.2929,0,0,0,0,0,-1.2862,-1.2869,-1.2868,-1.287,-1.2879,-1.2886,-1.2887,-1.2888,-1.2885,-1.2889,-1.2891,-1.2891,-1.2905,-1.2901,-1.2903,-1.2908,-1.2922,-1.2923,-1.2924,-1.2926,-1.2928,-1.2929,0,0,0,0,0,0,-1.2865,-1.287,-1.2869,-1.2877,-1.2881,-1.2885,-1.289,-1.2889,-1.2894,-1.2894,-1.2895,-1.2896,-1.2904,-1.2907,-1.2903,-1.2917,-1.2913,-1.2914,-1.2915,-1.2916,-1.2917,-1.2916,-1.29,0,0,0,0,0,-1.2867,-1.2872,-1.2875,-1.2883,-1.2884,-1.2887,-1.289,-1.289,-1.2894,-1.2896,-1.2899,-1.2904,-1.2909,-1.2913,-1.2918,-1.2927,-1.2928,-1.2931,-1.2932,-1.2933,-1.2934,-1.2939,-1.294,-1.2926,-1.2926,-1.2926,0,0,-1.287,-1.2873,-1.2876,-1.2883,-1.2886,-1.2892,-1.2888,-1.2894,-1.2898,-1.2897,-1.2905,-1.2907,-1.2912,-1.2921,-1.2925,-1.2923,-1.2938,-1.2934,-1.2934,-1.2935,-1.2939,-1.2941,-1.2942,-1.2926,-1.2926,-1.2926,0,0,-1.2879,-1.2882,-1.2888,-1.2891,-1.2896,-1.2897,-1.2899,-1.2903,-1.2904,-1.2912,-1.2911,-1.2916,-1.2926,-1.2929,-1.2932,-1.2942,-1.2942,-1.2944,-1.2949,-1.2954,-1.2955,-1.2956,-1.2959,-1.2961,-1.2945,-1.2945,-1.2945,0,-1.2883,-1.2891,-1.2892,-1.2897,-1.29,-1.2899,-1.2906,-1.2909,-1.2915,-1.2917,-1.2915,-1.2927,-1.293,-1.2939,-1.2942,-1.2944,-1.2946,-1.2943,-1.2954,-1.2955,-1.2956,-1.296,-1.2961,-1.2945,-1.2945,-1.2945,-1.2945,0,-1.2896,-1.2901,-1.2905,-1.2911,-1.2914,-1.292,-1.2922,-1.2926,-1.2926,-1.2928,-1.2935,-1.2939,-1.2945,-1.2947,-1.2948,-1.2957,-1.2956,-1.2954,-1.2951,-1.2958,-1.2961,-1.2963,-1.2946,-1.2945,-1.2945,-1.2945,0,0,-1.2907,-1.2912,-1.2914,-1.2917,-1.2921,-1.2926,-1.2932,-1.2937,-1.294,-1.2944,-1.2949,-1.2957,-1.2956,-1.2959,-1.296,-1.2964,-1.2972,-1.2962,-1.2962,-1.2964,-1.2982,-1.2983,-1.2985,-1.2971,-1.2972,-1.2972,-1.2982,0,-1.2917,-1.2927,-1.2928,-1.2937,-1.2942,-1.2941,-1.2946,-1.295,-1.2952,-1.2956,-1.2958,-1.2964,-1.2961,-1.2963,-1.2968,-1.297,-1.2976,-1.2969,-1.2977,-1.2977,-1.2975,-1.2987,-1.2988,-1.2997,-1.2983,-1.2983,-1.2983,0,-1.293,-1.2934,-1.2943,-1.2947,-1.2949,-1.2954,-1.2959,-1.2963,-1.2967,-1.2968,-1.2972,-1.2972,-1.2978,-1.2974,-1.2983,-1.2979,-1.2982,-1.2984,-1.2984,-1.2985,-1.2981,-1.2988,-1.3,-1.3001,-1.2985,-1.2985,-1.2985,0,-1.2937,-1.2945,-1.2952,-1.2954,-1.2959,-1.2962,-1.2964,-1.2968,-1.2971,-1.2975,-1.2977,-1.2983,-1.2985,-1.299,-1.2991,-1.2988,-1.3,-1.2996,-1.3001,-1.3001,-1.3004,-1.3004,-1.3017,-1.3006,-1.3006,-1.3006,-1.3005,0,-1.2948,-1.2954,-1.2955,-1.296,-1.2967,-1.2967,-1.2974,-1.2976,-1.2979,-1.2984,-1.2983,-1.2988,-1.2989,-1.2994,-1.2996,-1.3003,-1.3004,-1.3005,-1.3005,-1.3005,-1.3005,-1.3007,-1.3007,-1.3006,-1.3006,-1.3006,-1.3006,0,-1.2958,-1.2959,-1.2967,-1.297,-1.2971,-1.2976,-1.2979,-1.2983,-1.2984,-1.299,-1.2992,-1.2994,-1.3,-1.3002,-1.3009,-1.3009,-1.3018,-1.3018,-1.3016,-1.3017,-1.3021,-1.3021,-1.3036,-1.3039,-1.3026,-1.3026,-1.3026,0,-1.2965,-1.297,-1.2973,-1.2976,-1.2978,-1.2983,-1.2986,-1.2987,-1.299,-1.2995,-1.2998,-1.3004,-1.3008,-1.3017,-1.302,-1.3025,-1.3025,-1.303,-1.3026,-1.3026,-1.3025,-1.3025,-1.3026,-1.3031,-1.3031,-1.3031,-1.3031,0,-1.2978,-1.2978,-1.2982,-1.2986,-1.299,-1.2993,-1.2997,-1.2999,-1.3,-1.3004,-1.301,-1.3013,-1.302,-1.3025,-1.3031,-1.3033,-1.3033,-1.3033,-1.3034,-1.3034,-1.3033,-1.3034,-1.3019,-1.3032,-1.3032,-1.3032,-1.3032,-1.3032,-1.2987,-1.2991,-1.2994,-1.2998,-1.3001,-1.3004,-1.3008,-1.3009,-1.3014,-1.3019,-1.3019,-1.3025,-1.3029,-1.3036,-1.3038,-1.3043,-1.3042,-1.3044,-1.3044,-1.3045,-1.3045,-1.3032,-1.3044,-1.3044,-1.3044,-1.3044,-1.3044,0,-1.2999,-1.3001,-1.3005,-1.301,-1.3013,-1.3012,-1.3015,-1.3019,-1.3024,-1.3027,-1.3031,-1.3037,-1.3043,-1.3045,-1.305,-1.3054,-1.3054,-1.3055,-1.3055,-1.3056,-1.3046,-1.3045,-1.3055,-1.3055,-1.3055,-1.3055,-1.3055,-1.3055,-1.3006,-1.3013,-1.3013,-1.3021,-1.3023,-1.3028,-1.303,-1.3033,-1.3036,-1.3043,-1.3047,-1.3048,-1.3051,-1.3056,-1.3061,-1.3062,-1.3064,-1.3065,-1.3066,-1.3057,-1.3056,-1.3055,-1.3054,-1.3066,-1.3066,-1.3075,-1.3075,-1.3075]},{"header":{"parameterUnit":"m.s-1","parameterCategory":1,"la1":30.2991,"la2":30.254,"lo1":-89.0895,"lo2":-89.0444,"dy":0.0017,"dx":0.0017,"nx":28,"ny":28,"refTime":"2025-03-19T09:00:00:Z","depth":0,"parameterNumber":3,"parameterNumberName":"V-component_of_WINDS"},"data":[0,0,0,0,0,0,0,0,0,0,0,0,0,0,0,0,0,0,0,0,0,0,0,0,0,0,0,0,0,0,0,0,0,0,0,0,0,0,0,0,0,0,0,0,0,0,0,0,0,0,0,0,0,0,0,0,0,0,6.7917,6.7918,0,6.8031,6.8032,6.8033,6.8,6.7998,6.7996,6.7993,6.8102,6.8107,6.8112,0,0,0,0,0,0,0,0,0,0,0,0,0,6.7661,6.7666,6.7917,6.7918,6.792,6.8031,6.8032,6.8034,6.8001,6.7998,6.7995,6.7992,6.81,6.8106,6.8112,0,0,0,0,0,0,0,0,0,0,0,0,0,6.7773,6.7668,6.7917,6.7917,6.7918,6.803,6.8032,6.8034,6.8001,6.7998,6.7994,6.7991,6.8098,6.8105,6.8113,6.823,0,0,6.8136,6.8139,0,0,0,0,0,0,0,0,6.7767,6.7782,6.7915,6.7917,6.7918,6.7998,6.7982,6.8099,6.8002,6.7969,6.7993,6.7989,6.8069,6.8079,6.8108,6.8235,6.8239,6.8137,6.8141,6.8145,6.8147,0,0,0,0,0,0,0,6.7759,6.7777,6.7962,6.7917,6.7919,6.7908,6.792,6.8004,6.8037,6.7972,6.797,6.7984,6.807,6.8101,6.811,6.8241,6.8137,6.8143,6.8148,6.8151,6.8465,6.8469,0,0,0,0,0,0,6.7751,6.7771,6.7958,6.7965,6.7833,6.7915,6.7929,6.7976,6.8036,6.8042,6.7987,6.7982,6.8089,6.8101,6.8114,6.8253,6.8145,6.8152,6.8156,6.8462,6.8466,6.847,0,0,0,0,0,0,6.7746,6.7768,6.7953,6.7868,6.789,6.7924,6.7976,6.798,6.8011,6.8048,6.8053,6.8013,6.8087,6.8103,6.8201,6.8256,6.8155,6.8162,6.8457,6.8463,6.8468,6.8532,0,0,0,0,0,0,6.7739,6.7767,6.7814,6.7869,6.7895,6.8042,6.798,6.7985,6.8025,6.802,6.8074,6.8079,6.8086,6.819,6.8208,6.8264,6.8168,6.8452,6.846,6.8467,6.8525,6.8539,6.8551,0,0,0,0,0,6.773,6.7826,6.7816,6.7839,6.7955,6.8045,6.8059,6.8067,6.803,6.8076,6.8099,6.8078,6.8247,6.82,6.8221,6.828,6.8449,6.8458,6.8466,6.8519,6.8536,6.8551,0,0,0,0,0,0,6.7774,6.7833,6.7823,6.7941,6.7988,6.8039,6.8098,6.8086,6.8143,6.8135,6.8139,6.8152,6.8252,6.8275,6.8222,6.8394,6.8342,6.8355,6.8375,6.8392,6.8405,6.8396,6.8174,0,0,0,0,0,6.7798,6.7869,6.7915,6.8014,6.8039,6.8064,6.8104,6.8106,6.8154,6.8173,6.8203,6.8249,6.8312,6.8353,6.8414,6.8528,6.8538,6.8579,6.8592,6.8602,6.8613,6.8673,6.8691,6.8499,6.8499,6.8498,0,0,6.7846,6.7888,6.7932,6.8024,6.8061,6.8131,6.8081,6.8158,6.8209,6.8184,6.8278,6.8302,6.8352,6.8459,6.8507,6.8482,6.8668,6.8613,6.8622,6.8627,6.8683,6.8702,6.8718,6.8504,6.8503,6.8502,0,0,6.7971,6.8011,6.8097,6.8135,6.8193,6.8209,6.8229,6.8282,6.8298,6.8393,6.8375,6.8434,6.8544,6.858,6.8612,6.8749,6.8731,6.8768,6.8836,6.8894,6.8909,6.8923,6.8969,6.8986,6.8779,6.8779,6.878,0,6.8024,6.8133,6.8142,6.822,6.826,6.8243,6.8327,6.8363,6.8436,6.8462,6.8434,6.857,6.8602,6.8716,6.8749,6.8777,6.8798,6.8762,6.8907,6.892,6.8933,6.8977,6.8995,6.8784,6.8783,6.8783,6.8782,0,6.8193,6.8268,6.833,6.8404,6.845,6.8531,6.855,6.8595,6.8592,6.861,6.8705,6.8744,6.8811,6.8838,6.8836,6.8951,6.8933,6.8906,6.8853,6.8955,6.8997,6.9014,6.8789,6.8788,6.8787,6.8786,0,0,6.8349,6.8427,6.8449,6.8481,6.8543,6.8599,6.8678,6.8746,6.8783,6.8834,6.8898,6.899,6.8965,6.9002,6.9003,6.9054,6.9157,6.902,6.9021,6.9043,6.9283,6.9302,6.9322,6.9146,6.9149,6.9152,6.9278,0,6.8478,6.862,6.863,6.8757,6.8824,6.8808,6.8876,6.8919,6.8937,6.8994,6.9013,6.9078,6.9041,6.9063,6.9113,6.9134,6.9205,6.9125,6.9202,6.9205,6.9189,6.9344,6.9365,6.9482,6.9294,6.9297,6.9299,0,6.8648,6.8706,6.884,6.889,6.8919,6.898,6.9042,6.9098,6.9145,6.9154,6.9196,6.9189,6.9266,6.9212,6.9316,6.9261,6.9293,6.9308,6.9312,6.9318,6.9257,6.9352,6.952,6.9537,6.9325,6.9323,6.9321,0,6.8746,6.8857,6.8951,6.8979,6.9041,6.9084,6.9111,6.9155,6.9194,6.9247,6.9272,6.9332,6.9365,6.941,6.9418,6.9378,6.9522,6.9469,6.9529,6.9529,6.9559,6.9557,6.9732,6.9582,6.9582,6.9582,6.9581,0,6.8888,6.897,6.8996,6.9054,6.9144,6.9153,6.9241,6.9264,6.9303,6.9363,6.9351,6.9406,6.9415,6.9471,6.9478,6.9562,6.9577,6.9584,6.9585,6.9585,6.9584,6.9605,6.9596,6.9586,6.9585,6.9584,6.9584,0,6.9012,6.9034,6.9135,6.9185,6.9199,6.9263,6.9304,6.9358,6.9375,6.945,6.9467,6.9493,6.9558,6.9572,6.9649,6.9653,6.9752,6.9745,6.9737,6.9736,6.9795,6.9788,6.9989,7.0014,6.9849,6.9851,6.9852,0,6.9101,6.9164,6.9222,6.9262,6.9292,6.9357,6.9397,6.9407,6.9449,6.9506,6.9552,6.9617,6.9669,6.9774,6.9797,6.9855,6.9848,6.9914,6.9856,6.9854,6.9847,6.9842,6.9847,6.9925,6.9926,6.9928,6.9929,0,6.9256,6.9263,6.9324,6.9387,6.9436,6.9486,6.9533,6.9566,6.9581,6.9629,6.9697,6.9737,6.9816,6.988,6.9937,6.9961,6.9947,6.9947,6.9964,6.9964,6.9956,6.9959,6.9765,6.9942,6.9941,6.994,6.9939,6.9939,6.9364,6.9419,6.9467,6.9534,6.9571,6.9615,6.9668,6.9691,6.9749,6.9816,6.9817,6.9891,6.9933,7.001,7.0037,7.0092,7.0071,7.0096,7.0102,7.0107,7.0112,6.9948,7.0103,7.0103,7.0102,7.0102,7.0102,0,6.9517,6.9547,6.9609,6.9676,6.9728,6.9712,6.9763,6.9806,6.9872,6.9914,6.9966,7.0043,7.0104,7.0132,7.0191,7.0229,7.0224,7.0244,7.0241,7.0246,7.0129,7.0108,7.0247,7.0247,7.0247,7.0247,7.0247,7.0247,6.9602,6.9693,6.9706,6.9813,6.9842,6.9916,6.9946,6.9985,7.0018,7.0106,7.0157,7.0175,7.0211,7.0272,7.0326,7.0332,7.0353,7.0376,7.0379,7.0269,7.0254,7.024,7.022,7.0382,7.0382,7.0492,7.0493,7.0493]}]]